• In Deutschland
  • Länderverzeichnis
  • Für 7 Tage
  • Wassertemperatur
  • Satellitenkarten
  • Wetterkarte
  • Widgets
  • user-avatar
    Anmelden

    Stündliche Wetter Molepolole

    Heute, 20 September, Donnerstag

    Zeit Temperatur Niederschläge Wind Luftdruck Luftfeuchtigkeit
    00:00 +22°C° 0 mm 6 m/S 666 mmHg 15%
    01:00 +20°C° 0 mm 5 m/S 666 mmHg 18%
    02:00 +19°C° 0 mm 4 m/S 666 mmHg 23%
    03:00 +18°C° 0 mm 4 m/S 666 mmHg 24%
    04:00 +17°C° 0 mm 3 m/S 666 mmHg 26%
    05:00 +16°C° 0 mm 3 m/S 666 mmHg 27%
    06:00 +17°C° 0 mm 3 m/S 666 mmHg 25%
    07:00 +19°C° 0 mm 3 m/S 666 mmHg 24%
    08:00 +20°C° 0 mm 3 m/S 667 mmHg 22%
    09:00 +23°C° 0 mm 4 m/S 667 mmHg 18%
    10:00 +27°C° 0 mm 4 m/S 667 mmHg 14%
    11:00 +32°C° 0 mm 4 m/S 668 mmHg 10%
    12:00 +34°C° 0 mm 4 m/S 667 mmHg 9%
    13:00 +36°C° 0 mm 4 m/S 667 mmHg 8%
    14:00 +37°C° 0 mm 5 m/S 667 mmHg 7%
    15:00 +37°C° 0 mm 4 m/S 666 mmHg 7%
    16:00 +37°C° 0 mm 4 m/S 666 mmHg 7%
    17:00 +37°C° 0 mm 4 m/S 665 mmHg 7%
    18:00 +34°C° 0 mm 5 m/S 665 mmHg 14%
    19:00 +32°C° 0 mm 5 m/S 665 mmHg 20%
    20:00 +28°C° 0 mm 6 m/S 665 mmHg 27%
    21:00 +27°C° 0 mm 6 m/S 666 mmHg 33%
    22:00 +25°C° 0 mm 5 m/S 666 mmHg 39%
    23:00 +23°C° 0 mm 5 m/S 667 mmHg 45%

    Morgen, 21 September, Freitag

    Zeit Temperatur Niederschläge Wind Luftdruck Luftfeuchtigkeit
    00:00 +22°C° 0 mm 5 m/S 666 mmHg 50%
    01:00 +21°C° 0 mm 4 m/S 666 mmHg 54%
    02:00 +20°C° 0 mm 4 m/S 666 mmHg 59%
    03:00 +19°C° 0 mm 4 m/S 666 mmHg 63%
    04:00 +18°C° 0 mm 4 m/S 666 mmHg 67%
    05:00 +18°C° 0 mm 4 m/S 666 mmHg 71%
    06:00 +17°C° 0 mm 5 m/S 667 mmHg 70%
    07:00 +17°C° 0 mm 5 m/S 667 mmHg 69%
    08:00 +19°C° 0 mm 6 m/S 668 mmHg 68%
    09:00 +21°C° 0 mm 6 m/S 668 mmHg 59%
    10:00 +23°C° 0 mm 6 m/S 668 mmHg 50%
    11:00 +27°C° 0 mm 6 m/S 669 mmHg 41%
    12:00 +29°C° 0 mm 6 m/S 668 mmHg 36%
    13:00 +30°C° 0 mm 5 m/S 668 mmHg 31%
    14:00 +33°C° 0 mm 5 m/S 667 mmHg 26%
    15:00 +33°C° 0 mm 4 m/S 667 mmHg 24%
    16:00 +34°C° 0 mm 4 m/S 666 mmHg 23%
    17:00 +34°C° 0 mm 4 m/S 666 mmHg 21%
    18:00 +32°C° 0 mm 4 m/S 666 mmHg 25%
    19:00 +29°C° 0 mm 4 m/S 666 mmHg 28%
    20:00 +27°C° 0 mm 4 m/S 665 mmHg 32%
    21:00 +27°C° 0 mm 4 m/S 666 mmHg 34%
    22:00 +26°C° 0 mm 4 m/S 666 mmHg 37%
    23:00 +25°C° 0 mm 4 m/S 666 mmHg 39%

    übermorgen, 22 September, Samstag

    Zeit Temperatur Niederschläge Wind Luftdruck Luftfeuchtigkeit
    00:00 +23°C° 0 mm 4 m/S 666 mmHg 43%
    01:00 +23°C° 0 mm 4 m/S 665 mmHg 47%
    02:00 +22°C° 0 mm 4 m/S 665 mmHg 50%
    03:00 +21°C° 0 mm 4 m/S 665 mmHg 53%
    04:00 +21°C° 0 mm 4 m/S 665 mmHg 55%
    05:00 +20°C° 0 mm 4 m/S 665 mmHg 57%
    06:00 +21°C° 0 mm 5 m/S 665 mmHg 55%
    07:00 +22°C° 0 mm 6 m/S 666 mmHg 54%
    08:00 +22°C° 0 mm 7 m/S 667 mmHg 52%
    09:00 +26°C° 0 mm 7 m/S 667 mmHg 44%
    10:00 +28°C° 0 mm 7 m/S 667 mmHg 36%
    11:00 +30°C° 0 mm 7 m/S 668 mmHg 28%
    12:00 +33°C° 0 mm 7 m/S 667 mmHg 24%
    13:00 +34°C° 0 mm 6 m/S 667 mmHg 19%
    14:00 +36°C° 0 mm 6 m/S 666 mmHg 14%
    15:00 +35°C° 0 mm 6 m/S 666 mmHg 14%
    16:00 +35°C° 0 mm 5 m/S 665 mmHg 13%
    17:00 +35°C° 0 mm 5 m/S 665 mmHg 13%
    18:00 +33°C° 0 mm 5 m/S 665 mmHg 15%
    19:00 +30°C° 0 mm 4 m/S 665 mmHg 18%
    20:00 +28°C° 0 mm 4 m/S 665 mmHg 20%
    21:00 +28°C° 0 mm 4 m/S 666 mmHg 23%
    22:00 +27°C° 0 mm 5 m/S 666 mmHg 25%
    23:00 +26°C° 0 mm 5 m/S 666 mmHg 28%

    23 September, Sonntag

    Zeit Temperatur Niederschläge Wind Luftdruck Luftfeuchtigkeit
    00:00 +26°C° 0 mm 5 m/S 666 mmHg 29%
    01:00 +25°C° 0 mm 5 m/S 665 mmHg 29%
    02:00 +23°C° 0 mm 6 m/S 665 mmHg 30%
    03:00 +23°C° 0 mm 6 m/S 665 mmHg 33%
    04:00 +22°C° 0 mm 5 m/S 665 mmHg 35%
    05:00 +21°C° 0 mm 5 m/S 665 mmHg 38%
    06:00 +22°C° 0 mm 6 m/S 666 mmHg 36%
    07:00 +23°C° 0 mm 7 m/S 666 mmHg 33%
    08:00 +24°C° 0 mm 8 m/S 667 mmHg 31%
    09:00 +27°C° 0 mm 8 m/S 667 mmHg 28%
    10:00 +28°C° 0 mm 7 m/S 667 mmHg 25%
    11:00 +30°C° 0 mm 7 m/S 667 mmHg 22%
    12:00 +32°C° 0 mm 6 m/S 667 mmHg 20%
    13:00 +34°C° 0 mm 6 m/S 666 mmHg 18%
    14:00 +35°C° 0 mm 5 m/S 666 mmHg 16%
    15:00 +35°C° 0 mm 5 m/S 665 mmHg 15%
    16:00 +35°C° 0 mm 5 m/S 665 mmHg 15%
    17:00 +35°C° 0 mm 4 m/S 665 mmHg 14%
    18:00 +33°C° 0 mm 4 m/S 665 mmHg 16%
    19:00 +30°C° 0 mm 4 m/S 665 mmHg 18%
    20:00 +28°C° 0 mm 5 m/S 664 mmHg 19%
    21:00 +27°C° 0 mm 5 m/S 664 mmHg 20%
    22:00 +27°C° 0 mm 5 m/S 664 mmHg 21%
    23:00 +26°C° 0 mm 6 m/S 664 mmHg 22%

    24 September, Montag

    Zeit Temperatur Niederschläge Wind Luftdruck Luftfeuchtigkeit
    00:00 +25°C° 0 mm 5 m/S 664 mmHg 23%
    01:00 +23°C° 0 mm 5 m/S 664 mmHg 24%
    02:00 +22°C° 0 mm 4 m/S 663 mmHg 25%
    03:00 +21°C° 0 mm 4 m/S 663 mmHg 28%
    04:00 +21°C° 0 mm 3 m/S 663 mmHg 30%
    05:00 +20°C° 0 mm 3 m/S 663 mmHg 33%
    06:00 +21°C° 0 mm 3 m/S 664 mmHg 32%
    07:00 +22°C° 0 mm 3 m/S 665 mmHg 31%
    08:00 +23°C° 0 mm 4 m/S 665 mmHg 30%
    09:00 +26°C° 0 mm 4 m/S 666 mmHg 26%
    10:00 +28°C° 0 mm 5 m/S 666 mmHg 23%
    11:00 +30°C° 0 mm 5 m/S 666 mmHg 19%
    12:00 +33°C° 0 mm 5 m/S 665 mmHg 17%
    13:00 +34°C° 0 mm 4 m/S 665 mmHg 15%
    14:00 +35°C° 0 mm 4 m/S 664 mmHg 12%
    15:00 +35°C° 0 mm 4 m/S 664 mmHg 12%
    16:00 +35°C° 0 mm 4 m/S 663 mmHg 11%
    17:00 +35°C° 0 mm 4 m/S 663 mmHg 11%
    18:00 +33°C° 0 mm 4 m/S 663 mmHg 12%
    19:00 +30°C° 0 mm 4 m/S 663 mmHg 13%
    20:00 +28°C° 0 mm 4 m/S 663 mmHg 15%
    21:00 +28°C° 0 mm 3 m/S 663 mmHg 15%
    22:00 +27°C° 0 mm 3 m/S 663 mmHg 16%
    23:00 +26°C° 0 mm 3 m/S 663 mmHg 16%

    25 September, Dienstag

    Zeit Temperatur Niederschläge Wind Luftdruck Luftfeuchtigkeit
    00:00 +25°C° 0 mm 3 m/S 663 mmHg 19%
    01:00 +25°C° 0 mm 3 m/S 663 mmHg 22%
    02:00 +24°C° 0 mm 3 m/S 663 mmHg 24%
    03:00 +22°C° 0 mm 3 m/S 663 mmHg 26%
    04:00 +22°C° 0 mm 3 m/S 663 mmHg 29%
    05:00 +21°C° 0 mm 3 m/S 663 mmHg 31%
    06:00 +22°C° 0 mm 4 m/S 663 mmHg 29%
    07:00 +23°C° 0 mm 5 m/S 664 mmHg 28%
    08:00 +24°C° 0 mm 6 m/S 665 mmHg 26%
    09:00 +27°C° 0 mm 6 m/S 665 mmHg 24%
    10:00 +29°C° 0 mm 6 m/S 665 mmHg 22%
    11:00 +32°C° 0 mm 6 m/S 665 mmHg 20%
    12:00 +34°C° 0 mm 5 m/S 665 mmHg 18%
    13:00 +35°C° 0 mm 5 m/S 664 mmHg 15%
    14:00 +37°C° 0 mm 4 m/S 664 mmHg 13%
    15:00 +36°C° 0 mm 4 m/S 664 mmHg 14%
    16:00 +35°C° 0 mm 4 m/S 663 mmHg 14%
    17:00 +34°C° 0 mm 4 m/S 663 mmHg 15%
    18:00 +33°C° 0 mm 3 m/S 663 mmHg 17%
    19:00 +30°C° 0 mm 2 m/S 663 mmHg 18%
    20:00 +29°C° 0 mm 1 m/S 663 mmHg 20%
    21:00 +29°C° 0 mm 1 m/S 663 mmHg 21%
    22:00 +28°C° 0 mm 2 m/S 664 mmHg 22%
    23:00 +28°C° 0 mm 2 m/S 664 mmHg 23%
    Mehr zeigen